Regional Weather Roundup
Issued by NWS Sterling, VA

Home | Current Version | Previous Version | Graphics & Text | Print | Product List | Glossary On
Versions: 1 2 3 4 5 6 7 8 9 10 11 12 13 14 15 16 17 18 19 20 21 22 23 24 25 26 27 28 29 30 31 32 33 34 35 36 37 38 39 40 41 42 43 44 45 46 47 48 49 50
000
ASUS41 KLWX 280810
RWRLWX

REGIONAL WEATHER ROUNDUP
NATIONAL WEATHER SERVICE BALTIMORE MD/WASHINGTON DC
400 AM EDT THU AUG 28 2014

Note: "FAIR" indicates few or no clouds below 12,000 feet
with no significant weather and/or obstructions to visibility.
 TC=TEMPERATURE CELSIUS

 * =Non NWS site. Station does not report precipitation (e.g. rain,
    snow, etc.), thunder, or fog.

DCZ001-MDZ009-015-VAZ040>042-051-053>054-280900-
WASHINGTON METRO
  /KDAA//-FT BELVOIR

CITY           SKY/WX    TMP DP  RH WIND       PRES   REMARKS
WASHINGTON NAT CLEAR     79  68  69 N13       29.90R
DULLES         PTCLDY    74  68  81 NW5       29.92R
ANDREWS AFB    CLEAR     77  69  77 N13       29.89S
QUANTICO       CLEAR     74  68  81 NW9       29.90S
COLLEGE PARK*  CLEAR     77  70  78 N5        29.89R
LEESBURG*      CLEAR     75  72  88 NW12      29.93S
MANASSAS*      CLEAR     75  72  88 NW6       29.91S
GAITHERSBURG*  CLEAR     72  66  83 NW3       29.95S

$$

MDZ006>007-011-014-280900-
BALTIMORE METRO

CITY           SKY/WX    TMP DP  RH WIND       PRES   REMARKS
BWI AIRPORT    PTCLDY    76  67  73 N6        29.89R
MD SCIENCE CTR   N/A     78  67  68 MISG      29.89R
ANNAPOLIS      CLEAR     77  70  79 NW13      29.87R
FORT MEADE*    CLEAR     72  68  88 N3        29.91S

$$

MDZ012-015-019>023-280900-
MARYLAND EASTERN SHORE

CITY           SKY/WX    TMP DP  RH WIND       PRES   REMARKS
OCEAN CITY     CLEAR     71  68  90 W7        29.84F
SALISBURY      PTCLDY    74  69  85 W3        29.85F
BAY BRIDGE AP*   N/A     77  70  78 N14       29.87S
CAMBRIDGE*     CLEAR     70  64  83 CALM      29.86R
EASTON*        CLEAR     74  72  92 CALM      29.90R

$$

MDZ017>025-280900-
SOUTHERN MARYLAND

CITY           SKY/WX    TMP DP  RH WIND       PRES   REMARKS
PATUXENT RIVER CLEAR     74  66  76 W8        29.87R
ST INIGOES     CLEAR     72  65  78 W3        29.87R
LEONARDTOWN*   CLEAR     70  64  83 W5        29.89S

$$

MDZ003>005-280900-
NORTH CENTRAL MARYLAND

CITY           SKY/WX    TMP DP  RH WIND       PRES   REMARKS
FREDERICK*     CLEAR     70  70 100 CALM      29.95R
HAGERSTOWN APT CLEAR     70  65  84 NW9       29.94F
WESTMINSTER*   CLEAR     72  68  88 N5        29.93R

$$

MDZ501>502-280900-
WESTERN MARYLAND

CITY           SKY/WX    TMP DP  RH WIND       PRES   REMARKS
OAKLAND*       FOG       61 N/A N/A NW7       30.10R VSB 1/4
CUMBERLAND*    CLEAR     72  63  73 CALM      30.04R

$$

VAZ025>031-280900-
SHENANDOAH VALLEY

CITY           SKY/WX    TMP DP  RH WIND       PRES   REMARKS
WINCHESTER*    MOCLDY    72  66  83 CALM      29.96S
STAUNTON*      CLOUDY    67  64  90 CALM      30.01S

$$

WVZ021-048>050-054>055-280900-
EASTERN WEST VIRGINIA PANHANDLE

CITY           SKY/WX    TMP DP  RH WIND       PRES   REMARKS
MARTINSBURG    CLEAR     75  63  66 NW12      29.96S
PETERSBURG*    NOT AVBL

$$

VAZ036>039-050-280900-
CENTRAL FOOTHILLS

CITY           SKY/WX    TMP DP  RH WIND       PRES   REMARKS
CHARLOTTESVILL MOCLDY    71  67  87 W6        29.94S
ORANGE*        PTCLDY    70  66  88 CALM      29.94S

$$

VAZ055>057-280900-
NORTH AND CENTRAL PIEDMONT

CITY           SKY/WX    TMP DP  RH WIND       PRES   REMARKS
FREDERICKSBRG* CLEAR     74  68  82 NW6       29.89F
STAFFORD*      CLEAR     71  71 100 NW8       29.95R

$$

NCZ024-NYZ072-PAZ021-071-VAZ022-071-280900-
OTHER REGIONAL OBSERVATIONS

CITY           SKY/WX    TMP DP  RH WIND       PRES   REMARKS
NEW YORK CITY  PTCLDY    75  61  61 MISG      29.88S
PHILADELPHIA   PTCLDY    77  64  64 N16       29.86S
PITTSBURGH     PTCLDY    62  57  83 N7        30.07S
ROANOKE        MOCLDY    73  65  75 W8        30.02S
RICHMOND       PTCLDY    72  63  73 W5        29.90F
RALEIGH        PTCLDY    66  62  87 CALM      29.97S

$$

ANZ530>537-280900-
MARINE OBSERVATIONS

STATION/POSITION TIME  TEMP    WIND        PRES
                       AIR SEA DIR/SP/G
                 (UTC) (F)     (DEG/KT/KT) (MB)
THOMAS PT LIGHT  0800   77 78  350/ 14/ 15 1012.2R
BALT KEY BRIDGE  0800   83     340/ 10/ 13 1011.7R
COVE POINT       0800   78     330/ 11/ 13 1011.0F
LEWISETTA        0800   76 79  290/  9/ 11 1011.1S
SOLOMONS ISLAND  0800      80                N/A
PINEY POINT      0800          290/  7/  9   N/A

$$



USA.gov is the U.S. government's official web portal to all federal, state and local government web resources and services.